Phoenix-Mesa Gateway Airport, AZ

9:47 PM MST on December 12, 2017 (GMT -0700)
Phoenix-Mesa Gateway Airport

Weather History for KIWA - February, 2012

Change the Weather History Date:

Wednesday, February 29, 2012

  Actual Average Record
Temperature  
Mean Temperature 54 °F -  
Max Temperature 68 °F 66 °F 82 °F (2008)
Min Temperature 41 °F 43 °F 41 °F (2004)
Degree Days  
Heating Degree Days 10    
Growing Degree Days 4 (Base 50)    
Moisture  
Dew Point 27 °F    
Average Humidity 42    
Maximum Humidity 61    
Minimum Humidity 18    
Precipitation  
Precipitation 0.00 in - - ()
Sea Level Pressure  
Sea Level Pressure 30.15 in    
Wind  
Wind Speed 4 mph (SE)    
Max Wind Speed 8 mph    
Max Gust Speed -    
Visibility 11 miles    
Events      
Averages and records for this station are not official NWS values.
T = Trace of Precipitation, MM = Missing Value Source: NWS Daily Summary

Daily Weather History Graph

Daily Weather History Graph

Search for Another Location

Airport or City:

Trip Planner

Search our weather history database for the weather conditions in past years. The results will help you decide how hot, cold, wet, or windy it might be!

Date:

Astronomy

Feb. 29, 2012 Rise Set
Actual Time 6:55 AM MST 6:23 PM MST
Civil Twilight 6:30 AM MST 6:48 PM MST
Nautical Twilight 6:01 AM MST 7:16 PM MST
Astronomical Twilight 5:33 AM MST 7:45 PM MST
Moon 11:12 AM MST (2/29) 12:50 AM MST (2/29)
Length of Visible Light 12h 17m
Length of Day
11h 27m
Waxing Crescent, 48% of the Moon is Illuminated
Feb 29
Waxing Crescent
Feb 29
First Quarter
Mar 8
Full
Mar 14
Last Quarter
Mar 22
New

Hourly Weather History & Observations

Time (MST) Temp. Windchill Dew Point Humidity Pressure Visibility Wind Dir Wind Speed Gust Speed Precip Events Conditions
12:15 AM 44.6 °F 43.1 °F 32.0 °F 61% 30.20 in 10.0 mi ESE 3.5 mph - N/A   Clear
12:35 AM 42.8 °F 38.6 °F 30.2 °F 61% 30.20 in 10.0 mi SE 6.9 mph - N/A   Clear
12:55 AM 42.8 °F 39.3 °F 30.2 °F 61% 30.20 in 10.0 mi SE 5.8 mph - N/A   Clear
1:15 AM 44.6 °F 40.7 °F 30.2 °F 57% 30.21 in 10.0 mi SE 6.9 mph - N/A   Clear
1:35 AM 44.6 °F 42.2 °F 30.2 °F 57% 30.21 in 10.0 mi SE 4.6 mph - N/A   Clear
1:55 AM 44.6 °F 41.4 °F 32.0 °F 61% 30.21 in 10.0 mi ESE 5.8 mph - N/A   Clear
2:15 AM 44.6 °F 41.4 °F 30.2 °F 57% 30.20 in 10.0 mi SE 5.8 mph - N/A   Clear
2:35 AM 44.6 °F 41.4 °F 28.4 °F 53% 30.20 in 10.0 mi SE 5.8 mph - N/A   Clear
2:55 AM 44.6 °F 41.4 °F 30.2 °F 57% 30.19 in 10.0 mi SSE 5.8 mph - N/A   Clear
3:15 AM 42.8 °F 39.3 °F 30.2 °F 61% 30.18 in 10.0 mi SE 5.8 mph - N/A   Clear
3:35 AM 42.8 °F 38.6 °F 30.2 °F 61% 30.18 in 10.0 mi SE 6.9 mph - N/A   Clear
3:55 AM 42.8 °F 39.3 °F 30.2 °F 61% 30.18 in 10.0 mi SE 5.8 mph - N/A   Clear
4:15 AM 42.8 °F 40.1 °F 30.2 °F 61% 30.19 in 10.0 mi ESE 4.6 mph - N/A   Clear
4:35 AM 41.0 °F - 26.6 °F 57% 30.19 in 10.0 mi Calm Calm - N/A   Clear
4:55 AM 41.0 °F 38.0 °F 28.4 °F 61% 30.20 in 10.0 mi SE 4.6 mph - N/A   Clear
5:15 AM 41.0 °F 37.1 °F 28.4 °F 61% 30.20 in 10.0 mi SE 5.8 mph - N/A   Clear
6:47 AM 41.0 °F 38.0 °F 28.4 °F 61% 30.20 in 20.0 mi ESE 4.6 mph - N/A   Partly Cloudy
7:47 AM 42.8 °F 40.1 °F 30.2 °F 61% 30.21 in 35.0 mi ESE 4.6 mph - N/A   Clear
8:47 AM 48.2 °F - 33.8 °F 58% 30.23 in 35.0 mi SE 5.8 mph - N/A   Clear
9:47 AM 55.4 °F - 32.0 °F 41% 30.23 in 35.0 mi Variable 4.6 mph - N/A   Partly Cloudy
11:47 AM 62.6 °F - 30.2 °F 30% 30.20 in 35.0 mi SW 3.5 mph - N/A   Partly Cloudy
12:50 PM 66.2 °F - 28.4 °F 24% 30.17 in 35.0 mi Variable 3.5 mph - N/A   Partly Cloudy
1:47 PM 66.2 °F - 28.4 °F 24% 30.14 in 35.0 mi SSW 3.5 mph - N/A   Clear
2:47 PM 66.2 °F - 26.6 °F 23% 30.12 in 35.0 mi SSW 3.5 mph - N/A   Clear
3:47 PM 68.0 °F - 23.0 °F 18% 30.11 in 35.0 mi Variable 4.6 mph - N/A   Partly Cloudy
4:47 PM 68.0 °F - 24.8 °F 20% 30.10 in 35.0 mi WNW 4.6 mph - N/A   Partly Cloudy
5:47 PM 66.2 °F - 21.2 °F 18% 30.08 in 35.0 mi SW 6.9 mph - N/A   Clear
6:47 PM 64.4 °F - 23.0 °F 21% 30.08 in 20.0 mi SSW 4.6 mph - N/A   Clear
7:55 PM 62.6 °F - 21.2 °F 20% 30.09 in 10.0 mi Calm Calm - N/A   Clear
8:15 PM 60.8 °F - 21.2 °F 22% 30.09 in 10.0 mi Calm Calm - N/A   Clear
8:35 PM 60.8 °F - 21.2 °F 22% 30.09 in 10.0 mi Calm Calm - N/A   Clear
8:47 PM 59.0 °F - 21.2 °F 23% 30.09 in 20.0 mi Calm Calm - N/A   Clear
8:55 PM 55.4 °F - 21.2 °F 26% 30.09 in 10.0 mi Calm Calm - N/A   Clear
9:15 PM 55.4 °F - 21.2 °F 26% 30.09 in 10.0 mi Calm Calm - N/A   Clear
9:35 PM 55.4 °F - 23.0 °F 29% 30.09 in 10.0 mi Calm Calm - N/A   Clear
9:55 PM 53.6 °F - 21.2 °F 28% 30.09 in 10.0 mi Calm Calm - N/A   Clear
10:15 PM 51.8 °F - 23.0 °F 33% 30.10 in 10.0 mi Calm Calm - N/A   Clear
10:35 PM 51.8 °F - 23.0 °F 33% 30.09 in 10.0 mi ESE 4.6 mph - N/A   Clear
10:55 PM 48.2 °F - 21.2 °F 34% 30.09 in 10.0 mi ENE 5.8 mph - N/A   Clear
11:15 PM 50.0 °F - 23.0 °F 35% 30.09 in 10.0 mi SE 6.9 mph - N/A   Clear
11:35 PM 50.0 °F - 26.6 °F 40% 30.09 in 10.0 mi South 5.8 mph - N/A   Clear
11:55 PM 48.2 °F - 28.4 °F 46% 30.09 in 10.0 mi SE 8.1 mph - N/A   Clear